826  
ASUS41 KALY 241110  
RWRALY  
 
NEW YORK STATE HOURLY WEATHER ROUNDUP  
NATIONAL WEATHER SERVICE ALBANY NY  
600 AM EST WED JAN 24 2018  
 
NOTE: "FAIR" INDICATES FEW OR NO CLOUDS BELOW 12,000 FEET WITH NO  
SIGNIFICANT WEATHER AND/OR NO S TO VISIBILITY
.  
 
NYZ032-033-038>043-046>054-057>066-NYZ062>081-082-084-241200-  
EAST  
 
 
CITY SKY/WX TMP DP RH WIND PRES REMARKS
 
ALBANY CLOUDY 32 22 66 NW13G29 29.83R WCI 22  
GLENS FALLS CLOUDY 31 20 63 W12 29.77R WCI 22  
POUGHKEEPSIE CLOUDY 39 25 57 W15G23 29.78R WCI 31  
NEWBURGH MOCLDY 39 28 65 NW12G22 29.80R WCI 32  
MONTGOMERY CLOUDY 38 25 59 NW22G32 29.79R WCI 27  
WHITE PLAINS MOCLDY 40 25 55 W23G30 29.77R WCI 30  
ISLIP CLOUDY 42 32 67 W9 29.79R  
NEW YORK CITY MOCLDY 44 28 53 W13 29.81R  
CENTRAL PARK CLOUDY 42 29 59 VRB5 29.83R  

 
 
NYZ005>009-017-018-044>046-055-056-241200-  
CENTRAL  
 
 
CITY SKY/WX TMP DP RH WIND PRES REMARKS
 
FULTON FLURRIES 23 17 78 NW22G31 29.95R WCI 8  
SYRACUSE FLURRIES 24 20 84 W15G30 29.94R WCI 11  
ROME FLURRIES 24 19 81 W23G29 29.90R WCI 9  
ELMIRA CLOUDY 29 21 72 NW9 29.93R WCI 20  
BINGHAMTON CLOUDY 25 21 85 NW15G24 29.84R WCI 13  
MONTICELLO CLOUDY 31 23 72 NW20G29 29.80R WCI 19  

 
 
NYZ026>034-041>043-087-241200-  
NORTH  
 
 
CITY SKY/WX TMP DP RH WIND PRES REMARKS
 
WATERTOWN MOCLDY 19 13 77 NW12 29.95R WCI 7  
FORT DRUM NOT AVBL  
OGDENSBURG FAIR 15 8 73 NW17 29.93R WCI -1  
MASSENA CLOUDY 16 9 74 W13G26 29.91R WCI 2  
SARANAC LAKE LGT SNOW 14 11 87 W9 29.72R FOG WCI 2  
PLATTSBURGH CLOUDY 25 12 58 VRB7 29.78R WCI 17  

 
 
NYZ001>004-010>016-019>021-085-241200-  
WEST  
 
 
CITY SKY/WX TMP DP RH WIND PRES REMARKS
 
NIAGARA FALLS CLOUDY 24 14 65 NW15 30.04R WCI 11  
BUFFALO CLOUDY 23 17 78 W10 30.02R WCI 12  
DUNKIRK MIX PCPN 25 20 81 W14 30.06R WCI 13  
JAMESTOWN FLURRIES 22 20 92 W14 29.99R WCI 9  
WELLSVILLE FLURRIES 24 20 84 W17 29.92R WCI 11  
ROCHESTER FLURRIES 24 19 81 NW16 30.00R WCI 11  
PENN YAN FLURRIES N/A N/A N/A W10G22 29.95R  

 
 
KEY  
WCI = WIND CHILL INDEX  
VSB = VISIBILITY  
HX = HEAT INDEX  

 
 
 
CLICK HERE TO GO TO PREVIOUS BULLETINS.

The Nexlab NY Page
The Nexlab VT Page
The Nexlab MA Page
The Nexlab CT Page Main Text Page